RYR8UU LBSF-LIPH

Flight info

Callsign RYR8UU
Flight time 1h 32m
Altitude 38000
Route OGOTA3T/27 N0446F380 OGOT2T OGOTA L615 OBLAK DCT PUL DCT LABIN L614 CHI N503 INBUT INBU1A LIPH/07
Aircraft B738/M-SDE2E3FGHIRWXY/LB1

Departure

Time 2026-04-22 21:08
Airport Sofia Airport (LBSF)

Arrival

Time 2026-04-22 22:40
Airport Treviso Airport (LIPH)
Time Latitude Longitude Altitude Speed Heading
2026-04-22 20:15 42.69022 23.40589 1742 ft 0 kts 196°
2026-04-22 20:52 42.69011 23.40585 1743 ft 2 kts 196°
2026-04-22 20:52 42.68997 23.40578 1746 ft 2 kts 205°
2026-04-22 20:52 42.68986 23.40566 1748 ft 2 kts 219°
2026-04-22 20:53 42.68982 23.40549 1746 ft 2 kts 270°
2026-04-22 20:53 42.68985 23.40531 1752 ft 2 kts 284°
2026-04-22 20:53 42.68989 23.40514 1752 ft 2 kts 285°
2026-04-22 20:53 42.68992 23.40498 1747 ft 2 kts 287°
2026-04-22 20:54 42.69002 23.40458 1752 ft 7 kts 288°
2026-04-22 20:54 42.69016 23.40399 1746 ft 6 kts 288°
2026-04-22 20:54 42.69032 23.40342 1751 ft 6 kts 302°
2026-04-22 20:54 42.69070 23.40328 1752 ft 6 kts 17°
2026-04-22 20:55 42.69110 23.40343 1752 ft 6 kts 15°
2026-04-22 20:55 42.69150 23.40358 1746 ft 6 kts 15°
2026-04-22 20:55 42.69189 23.40372 1750 ft 6 kts 15°
2026-04-22 20:55 42.69228 23.40386 1752 ft 6 kts 15°
2026-04-22 20:56 42.69266 23.40401 1752 ft 6 kts 16°
2026-04-22 20:56 42.69327 23.40425 1745 ft 13 kts 16°
2026-04-22 20:56 42.69409 23.40457 1752 ft 12 kts 15°
2026-04-22 20:56 42.69489 23.40486 1752 ft 12 kts 15°
2026-04-22 20:57 42.69532 23.40564 1750 ft 11 kts 92°
2026-04-22 20:57 42.69524 23.40671 1745 ft 11 kts 94°
2026-04-22 20:57 42.69518 23.40774 1746 ft 11 kts 94°
2026-04-22 20:57 42.69513 23.40875 1752 ft 11 kts 94°
2026-04-22 20:58 42.69507 23.40971 1745 ft 10 kts 95°
2026-04-22 20:58 42.69500 23.41066 1752 ft 10 kts 95°
2026-04-22 20:58 42.69494 23.41158 1750 ft 10 kts 94°
2026-04-22 20:58 42.69489 23.41248 1752 ft 9 kts 94°
2026-04-22 20:59 42.69483 23.41356 1752 ft 13 kts 95°
2026-04-22 20:59 42.69474 23.41476 1749 ft 13 kts 95°
2026-04-22 20:59 42.69467 23.41594 1752 ft 12 kts 94°
2026-04-22 20:59 42.69459 23.41708 1752 ft 12 kts 95°
2026-04-22 21:00 42.69453 23.41820 1748 ft 12 kts 94°
2026-04-22 21:00 42.69448 23.41929 1749 ft 11 kts 93°
2026-04-22 21:00 42.69440 23.42034 1752 ft 11 kts 96°
2026-04-22 21:00 42.69435 23.42137 1745 ft 11 kts 94°
2026-04-22 21:01 42.69430 23.42237 1752 ft 10 kts 94°
2026-04-22 21:01 42.69424 23.42333 1752 ft 10 kts 94°
2026-04-22 21:01 42.69419 23.42427 1745 ft 10 kts 94°
2026-04-22 21:01 42.69414 23.42519 1752 ft 10 kts 94°
2026-04-22 21:02 42.69408 23.42608 1752 ft 9 kts 94°
2026-04-22 21:02 42.69404 23.42695 1752 ft 9 kts 94°
2026-04-22 21:02 42.69400 23.42751 1749 ft 9 kts 96°
2026-04-22 21:02 42.69394 23.42834 1752 ft 9 kts 95°
2026-04-22 21:03 42.69389 23.42915 1752 ft 8 kts 93°
2026-04-22 21:03 42.69386 23.42993 1748 ft 8 kts 94°
2026-04-22 21:03 42.69380 23.43069 1745 ft 8 kts 94°
2026-04-22 21:03 42.69376 23.43143 1749 ft 8 kts 94°
2026-04-22 21:04 42.69368 23.43279 1752 ft 17 kts 94°
2026-04-22 21:04 42.69358 23.43434 1752 ft 16 kts 94°
2026-04-22 21:04 42.69349 23.43584 1743 ft 16 kts 95°
2026-04-22 21:04 42.69340 23.43726 1758 ft 15 kts 95°
2026-04-22 21:05 42.69332 23.43862 1763 ft 14 kts 91°
2026-04-22 21:05 42.69361 23.43937 1767 ft 6 kts 20°
2026-04-22 21:05 42.69402 23.43949 1767 ft 6 kts
2026-04-22 21:05 42.69442 23.43954 1761 ft 6 kts
2026-04-22 21:06 42.69482 23.43951 1770 ft 6 kts 349°
2026-04-22 21:06 42.69516 23.43925 1772 ft 6 kts 312°
2026-04-22 21:06 42.69522 23.43873 1772 ft 6 kts 272°
2026-04-22 21:06 42.69526 23.43815 1766 ft 8 kts 275°
2026-04-22 21:07 42.69531 23.43712 1753 ft 13 kts 274°
2026-04-22 21:07 42.69546 23.43460 1750 ft 49 kts 275°
2026-04-22 21:07 42.69588 23.42759 1753 ft 98 kts 275°
2026-04-22 21:07 42.69660 23.41551 1757 ft 166 kts 275°
2026-04-22 21:08 42.69772 23.39757 2244 ft 201 kts 279°
2026-04-22 21:08 42.70076 23.37865 3176 ft 219 kts 289°
2026-04-22 21:08 42.70909 23.36030 3939 ft 236 kts 316°
2026-04-22 21:08 42.72300 23.34910 4818 ft 233 kts 343°
2026-04-22 21:09 42.73914 23.34543 5488 ft 238 kts 355°
2026-04-22 21:09 42.75560 23.34335 6331 ft 235 kts 355°
2026-04-22 21:09 42.77199 23.34125 7007 ft 244 kts 354°
2026-04-22 21:09 42.78961 23.33883 7552 ft 260 kts 354°
2026-04-22 21:10 42.80783 23.33620 8421 ft 266 kts 353°
2026-04-22 21:10 42.82633 23.33346 9336 ft 270 kts 353°
2026-04-22 21:10 42.84519 23.33064 10201 ft 276 kts 353°
2026-04-22 21:10 42.86506 23.32883 10573 ft 299 kts 358°
2026-04-22 21:11 42.88673 23.32857 10878 ft 322 kts 359°
2026-04-22 21:11 42.90945 23.32869 11563 ft 330 kts 359°
2026-04-22 21:11 42.93257 23.32882 12408 ft 334 kts 359°
2026-04-22 21:11 42.95590 23.32886 13288 ft 337 kts 358°
2026-04-22 21:12 42.97951 23.32880 14105 ft 341 kts 358°
2026-04-22 21:12 43.00341 23.32867 14844 ft 346 kts 358°
2026-04-22 21:12 43.02731 23.32850 15552 ft 350 kts 357°
2026-04-22 21:12 43.05181 23.32831 16271 ft 354 kts 357°
2026-04-22 21:13 43.07664 23.32828 16975 ft 359 kts 358°
2026-04-22 21:13 43.10179 23.32826 17656 ft 364 kts 358°
2026-04-22 21:13 43.12720 23.32804 18368 ft 368 kts 357°
2026-04-22 21:13 43.15295 23.32780 19004 ft 371 kts 357°
2026-04-22 21:14 43.17875 23.32596 19630 ft 371 kts 346°
2026-04-22 21:14 43.20240 23.31295 20265 ft 366 kts 324°
2026-04-22 21:14 43.22127 23.28999 20948 ft 363 kts 308°
2026-04-22 21:14 43.23424 23.26051 21585 ft 362 kts 293°
2026-04-22 21:15 43.24390 23.22846 22206 ft 365 kts 291°
2026-04-22 21:15 43.25316 23.19577 22781 ft 369 kts 290°
2026-04-22 21:15 43.26236 23.16275 23392 ft 372 kts 290°
2026-04-22 21:15 43.27165 23.12958 23958 ft 373 kts 290°
2026-04-22 21:16 43.28107 23.09615 24409 ft 377 kts 290°
2026-04-22 21:16 43.29064 23.06244 24841 ft 381 kts 291°
2026-04-22 21:16 43.30032 23.02839 25260 ft 385 kts 290°
2026-04-22 21:16 43.31010 22.99409 25697 ft 388 kts 291°
2026-04-22 21:17 43.31996 22.95944 26113 ft 391 kts 290°
2026-04-22 21:17 43.32989 22.92451 26506 ft 395 kts 291°
2026-04-22 21:17 43.33993 22.88909 26830 ft 400 kts 291°
2026-04-22 21:17 43.35003 22.85335 27229 ft 403 kts 291°
2026-04-22 21:18 43.36010 22.81731 27648 ft 405 kts 289°
2026-04-22 21:18 43.36960 22.78069 28019 ft 409 kts 289°
2026-04-22 21:18 43.37963 22.74399 28370 ft 412 kts 291°
2026-04-22 21:18 43.39026 22.70721 28743 ft 415 kts 291°
2026-04-22 21:19 43.40090 22.67070 29122 ft 418 kts 291°
2026-04-22 21:19 43.41166 22.63341 29466 ft 421 kts 291°
2026-04-22 21:19 43.42238 22.59573 29737 ft 426 kts 291°
2026-04-22 21:19 43.43316 22.55744 29985 ft 431 kts 291°
2026-04-22 21:20 43.44394 22.51887 30318 ft 433 kts 291°
2026-04-22 21:20 43.45473 22.48012 30633 ft 434 kts 291°
2026-04-22 21:20 43.46553 22.44134 30940 ft 435 kts 291°
2026-04-22 21:20 43.47636 22.40237 31253 ft 436 kts 291°
2026-04-22 21:21 43.48709 22.36339 31656 ft 435 kts 290°
2026-04-22 21:21 43.49626 22.32381 32091 ft 433 kts 287°
2026-04-22 21:21 43.50460 22.28402 32493 ft 432 kts 287°
2026-04-22 21:21 43.51262 22.24422 32847 ft 431 kts 286°
2026-04-22 21:22 43.52057 22.20446 33220 ft 430 kts 286°
2026-04-22 21:22 43.52851 22.16480 33624 ft 429 kts 286°
2026-04-22 21:22 43.53648 22.12527 34014 ft 427 kts 286°
2026-04-22 21:22 43.54447 22.08588 34324 ft 426 kts 287°
2026-04-22 21:23 43.55249 22.04652 34575 ft 427 kts 287°
2026-04-22 21:23 43.56053 22.00707 34818 ft 427 kts 287°
2026-04-22 21:23 43.56857 21.96766 35081 ft 427 kts 287°
2026-04-22 21:23 43.57660 21.92823 35345 ft 427 kts 287°
2026-04-22 21:24 43.58462 21.88879 35586 ft 427 kts 287°
2026-04-22 21:24 43.59263 21.84931 35826 ft 428 kts 287°
2026-04-22 21:24 43.60063 21.80981 36088 ft 427 kts 287°
2026-04-22 21:24 43.60861 21.77034 36337 ft 427 kts 287°
2026-04-22 21:25 43.61659 21.73078 36584 ft 428 kts 287°
2026-04-22 21:25 43.62454 21.69126 36819 ft 428 kts 286°
2026-04-22 21:25 43.63248 21.65170 37059 ft 428 kts 286°
2026-04-22 21:25 43.64040 21.61219 37288 ft 428 kts 287°
2026-04-22 21:26 43.64833 21.57257 37495 ft 428 kts 287°
2026-04-22 21:26 43.65625 21.53291 37714 ft 428 kts 287°
2026-04-22 21:26 43.66414 21.49328 37954 ft 428 kts 287°
2026-04-22 21:26 43.67192 21.45417 38127 ft 429 kts 287°
2026-04-22 21:27 43.68787 21.37377 38130 ft 438 kts 287°
2026-04-22 21:27 43.70406 21.29178 38135 ft 446 kts 287°
2026-04-22 21:28 43.72040 21.20865 38139 ft 450 kts 287°
2026-04-22 21:28 43.73678 21.12498 38133 ft 452 kts 287°
2026-04-22 21:29 43.75313 21.04108 38138 ft 452 kts 287°
2026-04-22 21:29 43.76942 20.95714 38145 ft 451 kts 287°
2026-04-22 21:30 43.78559 20.87347 38151 ft 449 kts 287°
2026-04-22 21:30 43.80163 20.79010 38157 ft 447 kts 287°
2026-04-22 21:31 43.81755 20.70700 38150 ft 446 kts 287°
2026-04-22 21:31 43.83337 20.62408 38156 ft 445 kts 287°
2026-04-22 21:32 43.84911 20.54121 38158 ft 444 kts 287°
2026-04-22 21:32 43.86475 20.45852 38156 ft 443 kts 287°
2026-04-22 21:33 43.88032 20.37587 38158 ft 443 kts 287°
2026-04-22 21:33 43.89581 20.29327 38168 ft 443 kts 287°
2026-04-22 21:34 43.91125 20.21054 38164 ft 443 kts 287°
2026-04-22 21:34 43.92663 20.12780 38177 ft 443 kts 287°
2026-04-22 21:35 43.94187 20.04547 38181 ft 444 kts 286°
2026-04-22 21:35 43.95716 19.96244 38172 ft 444 kts 286°
2026-04-22 21:36 43.97240 19.87935 38172 ft 444 kts 286°
2026-04-22 21:36 43.98758 19.79623 38194 ft 444 kts 286°
2026-04-22 21:37 44.00271 19.71301 38188 ft 444 kts 286°
2026-04-22 21:37 44.01777 19.62977 38188 ft 444 kts 286°
2026-04-22 21:38 44.03277 19.54649 38182 ft 444 kts 286°
2026-04-22 21:38 44.04772 19.46310 38187 ft 445 kts 286°
2026-04-22 21:39 44.06263 19.37960 38191 ft 445 kts 286°
2026-04-22 21:39 44.07748 19.29602 38194 ft 445 kts 286°
2026-04-22 21:40 44.09228 19.21236 38174 ft 445 kts 286°
2026-04-22 21:40 44.10700 19.12873 38197 ft 445 kts 286°
2026-04-22 21:41 44.12156 19.04563 38198 ft 445 kts 286°
2026-04-22 21:41 44.13627 18.96133 38202 ft 445 kts 286°
2026-04-22 21:42 44.15071 18.87813 38202 ft 445 kts 286°
2026-04-22 21:42 44.16519 18.79429 38196 ft 445 kts 286°
2026-04-22 21:43 44.17962 18.71042 38210 ft 445 kts 286°
2026-04-22 21:43 44.19401 18.62637 38199 ft 446 kts 286°
2026-04-22 21:44 44.20833 18.54226 38201 ft 446 kts 286°
2026-04-22 21:44 44.22260 18.45807 38210 ft 446 kts 286°
2026-04-22 21:45 44.23683 18.37376 38203 ft 447 kts 285°
2026-04-22 21:45 44.25099 18.28941 38204 ft 447 kts 285°
2026-04-22 21:46 44.26507 18.20511 38208 ft 447 kts 285°
2026-04-22 21:46 44.27583 18.14045 38193 ft 447 kts 285°
2026-04-22 21:47 44.28940 18.05853 38201 ft 446 kts 285°
2026-04-22 21:47 44.30332 17.97405 38202 ft 447 kts 285°
2026-04-22 21:48 44.31718 17.88954 38217 ft 447 kts 285°
2026-04-22 21:48 44.33100 17.80492 38203 ft 447 kts 285°
2026-04-22 21:49 44.34473 17.72033 38220 ft 447 kts 285°
2026-04-22 21:49 44.35833 17.63619 38219 ft 447 kts 285°
2026-04-22 21:50 44.37197 17.55133 38219 ft 448 kts 285°
2026-04-22 21:50 44.38556 17.46637 38209 ft 448 kts 285°
2026-04-22 21:51 44.39909 17.38140 38226 ft 448 kts 285°
2026-04-22 21:52 44.41923 17.25398 38247 ft 447 kts 285°
2026-04-22 21:52 44.43034 17.18333 38244 ft 447 kts 285°
2026-04-22 21:53 44.44364 17.09827 38218 ft 448 kts 285°
2026-04-22 21:53 44.45688 17.01319 38239 ft 448 kts 285°
2026-04-22 21:54 44.47007 16.92800 38236 ft 448 kts 285°
2026-04-22 21:54 44.48320 16.84272 38241 ft 448 kts 285°
2026-04-22 21:55 44.49628 16.75737 38236 ft 448 kts 285°
2026-04-22 21:55 44.50929 16.67193 38230 ft 448 kts 285°
2026-04-22 21:56 44.52225 16.58645 38238 ft 449 kts 285°
2026-04-22 21:56 44.53514 16.50091 38239 ft 449 kts 285°
2026-04-22 21:57 44.54798 16.41530 38228 ft 449 kts 285°
2026-04-22 21:57 44.56074 16.32970 38230 ft 448 kts 285°
2026-04-22 21:58 44.57344 16.24405 38234 ft 449 kts 284°
2026-04-22 21:58 44.58609 16.15833 38234 ft 449 kts 284°
2026-04-22 21:59 44.59860 16.07301 38231 ft 450 kts 284°
2026-04-22 21:59 44.61122 15.98647 38230 ft 450 kts 284°
2026-04-22 22:00 44.62362 15.90102 38227 ft 450 kts 284°
2026-04-22 22:00 44.63602 15.81502 38242 ft 450 kts 284°
2026-04-22 22:01 44.64837 15.72895 38244 ft 450 kts 284°
2026-04-22 22:01 44.66066 15.64278 38226 ft 449 kts 284°
2026-04-22 22:02 44.67285 15.55677 38225 ft 448 kts 284°
2026-04-22 22:02 44.68495 15.47093 38239 ft 448 kts 284°
2026-04-22 22:03 44.69698 15.38516 38230 ft 447 kts 284°
2026-04-22 22:03 44.70894 15.29936 38223 ft 447 kts 284°
2026-04-22 22:04 44.72082 15.21360 38232 ft 446 kts 284°
2026-04-22 22:04 44.73263 15.12793 38218 ft 446 kts 284°
2026-04-22 22:05 44.74436 15.04228 38222 ft 446 kts 284°
2026-04-22 22:05 44.75601 14.95669 38219 ft 445 kts 284°
2026-04-22 22:06 44.76756 14.87136 38197 ft 437 kts 284°
2026-04-22 22:06 44.77857 14.78927 38199 ft 426 kts 284°
2026-04-22 22:06 44.78407 14.74826 38051 ft 428 kts 284°
2026-04-22 22:07 44.78964 14.70679 37488 ft 432 kts 284°
2026-04-22 22:07 44.79519 14.66525 36929 ft 431 kts 284°
2026-04-22 22:07 44.80067 14.62396 36380 ft 427 kts 284°
2026-04-22 22:07 44.80608 14.58304 35843 ft 423 kts 284°
2026-04-22 22:08 44.81143 14.54244 35312 ft 420 kts 284°
2026-04-22 22:08 44.82188 14.46291 35413 ft 415 kts 284°
2026-04-22 22:09 44.83260 14.38141 35130 ft 431 kts 283°
2026-04-22 22:09 44.83799 14.34001 34903 ft 428 kts 283°
2026-04-22 22:09 44.84331 14.29894 34777 ft 421 kts 283°
2026-04-22 22:09 44.84848 14.25876 34633 ft 413 kts 283°
2026-04-22 22:10 44.85353 14.21940 34394 ft 404 kts 283°
2026-04-22 22:10 44.85848 14.18091 34118 ft 396 kts 283°
2026-04-22 22:10 44.86333 14.14311 33833 ft 388 kts 284°
2026-04-22 22:10 44.86809 14.10599 33533 ft 382 kts 284°
2026-04-22 22:11 44.87277 14.06937 33178 ft 377 kts 284°
2026-04-22 22:11 44.87739 14.03316 32813 ft 374 kts 284°
2026-04-22 22:11 44.88197 13.99726 32448 ft 370 kts 284°
2026-04-22 22:11 44.88647 13.96173 32079 ft 367 kts 284°
2026-04-22 22:12 44.89093 13.92648 31720 ft 364 kts 284°
2026-04-22 22:12 44.89524 13.89146 31313 ft 362 kts 283°
2026-04-22 22:12 44.89935 13.85650 30947 ft 360 kts 283°
2026-04-22 22:12 44.90336 13.82178 30573 ft 358 kts 284°
2026-04-22 22:13 44.90733 13.78729 30215 ft 355 kts 284°
2026-04-22 22:13 44.91126 13.75312 29793 ft 351 kts 284°
2026-04-22 22:13 44.91514 13.71935 29450 ft 347 kts 284°
2026-04-22 22:13 44.91897 13.68598 29087 ft 342 kts 284°
2026-04-22 22:14 44.92276 13.65301 28727 ft 339 kts 284°
2026-04-22 22:14 44.92650 13.62040 28370 ft 335 kts 284°
2026-04-22 22:14 44.93020 13.58812 28007 ft 332 kts 284°
2026-04-22 22:14 44.93387 13.55608 27664 ft 329 kts 284°
2026-04-22 22:15 44.93748 13.52440 27307 ft 326 kts 284°
2026-04-22 22:15 44.94107 13.49289 26966 ft 323 kts 284°
2026-04-22 22:15 44.94461 13.46165 26604 ft 321 kts 284°
2026-04-22 22:15 44.94811 13.43069 26303 ft 317 kts 284°
2026-04-22 22:16 44.95157 13.40004 25958 ft 315 kts 284°
2026-04-22 22:16 44.95501 13.36956 25636 ft 313 kts 284°
2026-04-22 22:16 44.95842 13.33925 25308 ft 312 kts 284°
2026-04-22 22:16 44.96182 13.30897 24983 ft 312 kts 284°
2026-04-22 22:17 44.96521 13.27869 24658 ft 314 kts 284°
2026-04-22 22:17 44.96867 13.24785 24330 ft 323 kts 284°
2026-04-22 22:17 44.97216 13.21660 23999 ft 329 kts 284°
2026-04-22 22:17 44.97570 13.18467 23593 ft 329 kts 284°
2026-04-22 22:18 44.97920 13.15285 23197 ft 327 kts 284°
2026-04-22 22:18 44.98267 13.12129 22839 ft 324 kts 284°
2026-04-22 22:18 44.98610 13.09005 22468 ft 321 kts 284°
2026-04-22 22:18 44.98950 13.05884 21979 ft 322 kts 284°
2026-04-22 22:19 44.99286 13.02770 21628 ft 320 kts 283°
2026-04-22 22:19 44.99619 12.99671 21273 ft 318 kts 283°
2026-04-22 22:19 44.99950 12.96597 20935 ft 315 kts 283°
2026-04-22 22:19 45.00277 12.93541 20597 ft 313 kts 283°
2026-04-22 22:20 45.00602 12.90509 20265 ft 311 kts 283°
2026-04-22 22:20 45.00925 12.87494 19950 ft 309 kts 283°
2026-04-22 22:20 45.01244 12.84496 19629 ft 308 kts 283°
2026-04-22 22:20 45.01561 12.81515 19310 ft 306 kts 283°
2026-04-22 22:21 45.01876 12.78536 18897 ft 308 kts 283°
2026-04-22 22:21 45.02195 12.75529 18503 ft 309 kts 283°
2026-04-22 22:21 45.02512 12.72523 18116 ft 309 kts 282°
2026-04-22 22:21 45.02826 12.69531 17753 ft 307 kts 282°
2026-04-22 22:22 45.03137 12.66558 17436 ft 304 kts 282°
2026-04-22 22:22 45.03445 12.63611 17109 ft 302 kts 282°
2026-04-22 22:22 45.03750 12.60681 16791 ft 300 kts 282°
2026-04-22 22:22 45.04053 12.57772 16478 ft 298 kts 282°
2026-04-22 22:23 45.04354 12.54879 16165 ft 297 kts 282°
2026-04-22 22:23 45.04652 12.51999 15855 ft 295 kts 282°
2026-04-22 22:23 45.04948 12.49133 15537 ft 294 kts 282°
2026-04-22 22:23 45.05243 12.46281 15225 ft 293 kts 282°
2026-04-22 22:24 45.05535 12.43443 14931 ft 291 kts 282°
2026-04-22 22:24 45.05826 12.40609 14626 ft 291 kts 282°
2026-04-22 22:24 45.06116 12.37784 14324 ft 290 kts 282°
2026-04-22 22:24 45.06403 12.34968 14017 ft 289 kts 282°
2026-04-22 22:25 45.06689 12.32154 13654 ft 288 kts 282°
2026-04-22 22:25 45.07053 12.29385 13318 ft 284 kts 294°
2026-04-22 22:25 45.08056 12.27106 12982 ft 275 kts 319°
2026-04-22 22:25 45.09532 12.25421 12657 ft 271 kts 327°
2026-04-22 22:26 45.11049 12.23845 12342 ft 270 kts 327°
2026-04-22 22:26 45.12561 12.22280 12043 ft 269 kts 327°
2026-04-22 22:26 45.14064 12.20717 11743 ft 267 kts 327°
2026-04-22 22:26 45.15554 12.19159 11455 ft 266 kts 327°
2026-04-22 22:27 45.17033 12.17606 11171 ft 264 kts 327°
2026-04-22 22:27 45.18503 12.16056 10888 ft 262 kts 327°
2026-04-22 22:27 45.19962 12.14514 10609 ft 261 kts 327°
2026-04-22 22:27 45.21410 12.12982 10346 ft 259 kts 327°
2026-04-22 22:28 45.22825 12.11482 10243 ft 250 kts 327°
2026-04-22 22:28 45.24215 12.10008 9948 ft 249 kts 327°
2026-04-22 22:28 45.25597 12.08542 9672 ft 247 kts 327°
2026-04-22 22:28 45.26972 12.07082 9396 ft 246 kts 327°
2026-04-22 22:29 45.28338 12.05630 9141 ft 244 kts 327°
2026-04-22 22:29 45.29696 12.04186 8871 ft 245 kts 326°
2026-04-22 22:29 45.31075 12.02719 8618 ft 251 kts 326°
2026-04-22 22:29 45.32493 12.01211 8346 ft 259 kts 326°
2026-04-22 22:30 45.33950 11.99658 8059 ft 265 kts 326°
2026-04-22 22:30 45.35425 11.98083 7689 ft 266 kts 325°
2026-04-22 22:30 45.36909 11.96498 7316 ft 268 kts 325°
2026-04-22 22:30 45.38392 11.94914 7008 ft 267 kts 325°
2026-04-22 22:31 45.39889 11.93314 6646 ft 269 kts 325°
2026-04-22 22:31 45.41387 11.91711 6304 ft 269 kts 325°
2026-04-22 22:31 45.42884 11.90104 5928 ft 268 kts 324°
2026-04-22 22:31 45.44346 11.88531 5633 ft 259 kts 324°
2026-04-22 22:32 45.45755 11.87014 5394 ft 249 kts 324°
2026-04-22 22:32 45.47109 11.85556 5166 ft 240 kts 324°
2026-04-22 22:32 45.48416 11.84148 4949 ft 231 kts 323°
2026-04-22 22:32 45.49659 11.82808 4740 ft 218 kts 323°
2026-04-22 22:33 45.50827 11.81549 4557 ft 203 kts 323°
2026-04-22 22:33 45.51929 11.80411 4360 ft 190 kts 333°
2026-04-22 22:33 45.53178 11.80151 4199 ft 182 kts 15°
2026-04-22 22:33 45.54269 11.81008 4072 ft 180 kts 46°
2026-04-22 22:34 45.54919 11.82529 4002 ft 181 kts 68°
2026-04-22 22:34 45.55390 11.84189 3924 ft 179 kts 68°
2026-04-22 22:34 45.55881 11.85849 3836 ft 183 kts 68°
2026-04-22 22:34 45.56355 11.87514 3757 ft 181 kts 69°
2026-04-22 22:35 45.56810 11.89157 3636 ft 175 kts 69°
2026-04-22 22:35 45.57277 11.90743 3570 ft 173 kts 68°
2026-04-22 22:35 45.57728 11.92347 3443 ft 176 kts 69°
2026-04-22 22:35 45.58168 11.93982 3260 ft 177 kts 69°
2026-04-22 22:36 45.58602 11.95627 3086 ft 176 kts 70°
2026-04-22 22:36 45.59026 11.97244 2894 ft 173 kts 70°
2026-04-22 22:36 45.59445 11.98848 2722 ft 171 kts 70°
2026-04-22 22:36 45.59848 12.00387 2656 ft 164 kts 70°
2026-04-22 22:37 45.60246 12.01939 2439 ft 166 kts 70°
2026-04-22 22:37 45.60635 12.03469 2286 ft 161 kts 70°
2026-04-22 22:37 45.61013 12.04977 2376 ft 164 kts 70°
2026-04-22 22:37 45.61407 12.06535 2223 ft 167 kts 70°
2026-04-22 22:38 45.61784 12.08027 2025 ft 150 kts 70°
2026-04-22 22:38 45.62133 12.09364 1758 ft 139 kts 68°
2026-04-22 22:38 45.62521 12.10669 1292 ft 146 kts 66°
2026-04-22 22:38 45.62874 12.12004 1019 ft 141 kts 70°
2026-04-22 22:39 45.63203 12.13299 754 ft 135 kts 66°
2026-04-22 22:39 45.63537 12.14496 592 ft 127 kts 67°
2026-04-22 22:39 45.63868 12.15686 470 ft 132 kts 67°
2026-04-22 22:39 45.64194 12.16940 238 ft 133 kts 67°
2026-04-22 22:40 45.64505 12.18115 68 ft 122 kts 67°
2026-04-22 22:40 45.64756 12.19047 63 ft 74 kts 69°
2026-04-22 22:40 45.64920 12.19651 56 ft 50 kts 70°
2026-04-22 22:40 45.64990 12.19918 53 ft 22 kts 69°
2026-04-22 22:41 45.65026 12.20055 55 ft 22 kts 68°
2026-04-22 22:41 45.65125 12.20215 55 ft 21 kts 29°
2026-04-22 22:41 45.65243 12.20294 57 ft 11 kts 27°
2026-04-22 22:41 45.65297 12.20364 58 ft 11 kts 62°
2026-04-22 22:42 45.65369 12.20444 60 ft 11 kts 355°
2026-04-22 22:42 45.65386 12.20435 55 ft 0 kts 336°